Theta_e
283 283 283 283 284 284 283 283 283 283 283 282 282 282 282 281 280 280 279 279 279 279 278 278 278 278 277 277 277 277 277 277 274 275 277 277 278 277 278 278 279 278 279
283 283 284 283 283 283 283 283 283 282 283 282 282 281 281 280 279 279 279 279 278 278 278 278 277 279 277 277 277 276 276 276 275 274 276 276 277 277 277 276 278 279 277
283 282 283 283 283 283 283 282 282 282 282 281 281 281 280 280 280 279 279 279 278 278 278 278 277 277 277 277 277 276 276 278 276 275 273 276 275 276 275 275 275 275 276
282 282 282 282 283 283 283 282 282 282 280 280 279 279 279 279 279 280 279 279 278 278 279 278 277 277 277 277 277 276 276 275 275 273 273 273 273 275 274 272 271 273 272
282 282 282 282 283 282 282 281 281 281 281 281 279 278 279 279 280 279 279 278 278 278 279 279 279 278 281 279 276 275 274 273 273 273 271 270 269 270 270 271 270 269 269
281 281 281 281 281 281 281 280 280 280 279 279 279 278 278 280 284 283 280 278 279 278 276 276 276 276 279 280 279 278 276 272 272 271 271 269 270 270 271 267 266 264 263
280 280 280 280 281 280 280 280 280 279 279 278 277 277 276 278 285 284 282 278 276 274 274 274 274 274 273 274 276 276 275 276 276 273 269 270 269 269 267 263 263 262 261
279 280 280 280 280 280 280 279 278 278 277 276 275 275 275 278 285 284 279 273 271 270 270 269 269 268 270 271 270 269 270 271 273 271 269 269 269 269 266 265 260 258 259
278 279 279 279 278 278 277 276 276 275 275 274 275 276 278 281 284 281 275 271 269 267 268 268 269 268 275 276 269 268 267 265 268 269 269 269 268 267 267 260 255 255 253
274 277 277 278 278 277 276 275 275 275 275 277 277 279 278 280 282 279 273 270 268 267 265 266 274 268 276 274 269 267 262 260 261 258 258 259 260 260 263 260 257 253 253
271 273 274 275 275 275 275 274 275 276 277 276 275 275 275 276 278 278 275 269 267 266 265 264 265 276 275 274 271 269 265 258 256 252 252 254 255 256 256 256 256 255 252
270 271 271 272 274 274 273 273 274 274 273 272 272 272 273 274 276 276 275 273 272 267 266 266 269 273 270 270 267 268 264 258 251 249 248 248 248 252 253 254 253 253 254
268 268 269 270 272 272 272 272 272 272 271 270 269 268 267 270 275 277 276 274 273 269 269 271 269 268 265 262 265 263 257 254 250 247 246 246 247 252 249 248 252 251 252
267 267 268 268 269 270 271 271 270 270 269 268 267 266 266 266 267 268 268 268 269 265 265 263 264 263 263 259 256 256 255 253 250 248 248 250 248 249 250 251 251 251 251
267 267 267 268 268 268 268 269 269 269 270 268 267 267 266 266 267 270 267 265 264 262 258 258 257 256 254 254 253 252 252 251 250 250 249 248 249 249 250 250 250 250 249
266 266 267 267 268 269 269 270 274 274 274 274 273 270 271 273 274 273 271 268 266 262 255 254 253 253 252 251 250 249 249 249 249 249 248 247 248 248 248 249 250 249 248
266 267 268 268 268 269 269 269 269 272 275 275 274 273 273 272 270 270 268 265 262 257 251 251 251 251 250 249 248 248 247 249 248 247 247 247 248 247 247 248 248 248 248
264 266 267 267 267 268 269 268 267 265 264 265 271 270 270 269 267 265 263 257 251 252 250 249 248 248 248 246 244 243 245 246 245 246 246 246 245 246 246 246 247 247 248
262 262 262 262 262 261 261 260 259 259 258 257 258 260 263 266 264 261 258 251 249 248 247 247 247 245 242 240 240 240 240 242 244 244 242 244 245 244 245 246 247 247 247
261 261 261 261 260 259 259 258 257 256 256 255 254 253 253 252 250 250 250 249 247 247 247 245 243 239 237 237 237 237 238 239 242 241 243 244 245 245 245 245 246 246 247
259 259 259 259 258 258 257 256 256 255 254 254 253 254 255 249 249 248 247 247 245 245 245 243 239 237 236 235 236 238 238 241 242 242 243 243 244 244 245 245 246 246 247
258 258 257 256 256 255 255 255 254 254 253 252 252 257 256 249 247 247 246 245 244 241 239 237 238 237 238 238 240 239 239 241 242 242 242 243 244 244 245 245 246 246 247
256 256 255 254 254 254 253 253 252 251 251 250 249 248 248 245 245 244 243 241 239 237 237 235 236 239 240 240 240 239 240 243 244 243 242 243 244 244 245 245 246 247 248
255 255 254 253 253 252 252 251 251 250 249 248 247 247 246 243 241 240 239 237 236 236 236 236 237 239 241 242 241 240 241 243 243 243 242 242 244 245 246 246 247 248 249
254 253 253 252 252 251 250 250 249 248 247 247 244 243 240 239 238 237 235 235 235 235 238 239 239 240 241 241 242 242 243 246 245 246 245 244 244 245 246 246 248 249 251
252 252 251 251 250 250 249 248 247 247 245 244 244 239 238 237 236 235 235 235 237 238 239 240 241 241 241 242 243 245 247 252 252 252 249 247 247 248 250 252 254 254 254
Wind_Speed
10 10 9 9 9 10 10 10 11 10 10 10 9 8 8 8 7 6 6 6 7 6 5 6 5 4 4 3 3 3 3 2 2 2 1 2 3 5 6 4 5 5 4
10 9 10 9 9 10 10 11 10 11 10 10 8 7 7 7 7 7 8 6 7 7 6 6 6 4 5 4 3 4 3 3 2 1 2 2 1 3 3 5 6 5 5
9 9 9 10 11 11 10 10 10 10 10 9 9 9 8 8 8 6 6 7 6 6 6 6 6 6 4 3 4 4 3 3 3 1 2 1 2 2 6 5 5 5 8
9 9 10 11 12 11 10 11 11 11 10 8 8 7 7 7 7 7 7 7 6 6 5 5 5 5 5 5 5 4 3 3 2 0 1 2 1 5 3 6 8 7 8
9 10 10 9 8 8 9 9 10 10 10 10 9 7 8 8 7 7 8 7 7 7 7 7 6 7 11 8 4 4 4 3 1 1 1 1 2 5 7 7 8 7 8
9 9 7 7 8 9 10 10 10 10 10 10 9 9 8 5 15 16 11 8 8 9 8 7 7 7 9 11 10 9 6 2 2 1 2 4 5 7 6 7 8 9 9
8 7 8 8 9 9 9 11 11 11 11 10 9 9 7 6 16 16 16 8 8 8 8 7 6 5 6 5 8 9 8 8 9 4 2 6 5 8 8 8 9 9 10
6 8 8 8 8 8 9 9 9 9 10 10 9 9 8 5 17 17 19 10 9 8 7 6 6 4 3 4 4 5 5 6 7 9 8 7 7 9 9 8 6 9 8
6 7 7 9 10 9 9 9 8 11 9 8 8 10 10 9 21 19 17 11 10 8 6 6 5 4 5 3 6 5 6 8 10 15 15 15 16 17 15 7 5 9 10
2 5 6 8 10 10 10 11 7 9 11 10 11 11 13 13 22 20 16 9 10 7 5 5 8 3 9 16 7 4 6 5 6 8 8 9 10 9 15 8 7 8 8
4 6 7 7 9 11 11 10 11 13 14 13 14 12 13 12 15 19 19 8 8 6 5 3 3 10 12 15 13 7 7 6 7 2 3 4 5 6 5 6 6 6 7
8 9 9 9 8 9 13 11 13 14 15 14 14 11 9 11 18 19 20 16 13 7 4 3 4 13 15 14 10 14 13 9 2 3 3 3 3 6 6 7 9 7 8
10 10 9 10 10 10 13 13 11 11 12 12 11 10 8 6 8 20 19 17 15 9 6 11 14 13 14 13 14 13 8 5 3 3 3 3 3 6 6 5 7 7 11
10 10 9 10 11 10 8 8 10 10 10 11 11 10 9 8 7 7 7 9 13 9 10 8 11 12 14 10 8 8 6 4 2 2 2 5 4 5 7 5 8 8 10
10 9 9 9 10 11 9 8 8 7 9 12 10 9 10 8 6 11 10 7 6 9 7 5 6 6 5 5 5 5 4 4 4 5 4 6 7 7 8 6 6 8 7
10 7 7 8 8 10 11 12 21 21 24 24 23 15 9 16 19 19 18 15 13 8 5 4 5 5 5 5 5 4 2 4 4 6 5 4 6 7 9 9 7 7 10
9 9 8 9 9 10 11 13 16 19 27 25 24 21 20 18 18 15 17 16 13 10 5 5 4 4 3 3 3 3 4 5 6 4 5 6 7 7 9 9 9 9 11
10 10 8 8 8 9 10 11 11 11 11 9 19 17 20 19 16 14 14 10 6 7 4 4 3 2 2 2 2 2 4 5 4 5 5 6 5 6 9 9 9 10 11
9 8 9 9 9 12 11 11 10 10 9 8 8 12 11 19 17 16 15 5 5 4 2 2 2 1 1 2 3 3 3 4 5 5 4 6 6 5 9 9 10 13 14
10 13 11 9 9 10 9 10 9 8 8 7 6 5 3 5 4 5 5 4 4 3 2 1 1 2 3 3 3 3 4 4 5 4 5 6 6 6 9 10 9 11 12
8 8 12 9 9 8 8 8 8 8 7 6 6 6 10 6 4 3 3 3 2 1 0 2 3 3 3 3 3 3 4 5 5 6 6 7 7 8 8 9 10 11 12
9 9 8 9 8 9 8 7 7 7 7 6 4 8 14 5 4 3 2 2 0 2 2 3 3 3 3 3 4 4 5 6 6 6 6 8 7 8 8 9 11 11 12
10 11 10 9 9 11 8 7 7 6 6 5 5 5 4 3 2 2 0 2 2 3 2 2 3 5 3 4 4 5 5 8 7 6 7 8 8 8 8 10 11 13 13
10 10 10 9 7 7 7 7 7 8 6 5 4 3 3 2 1 1 2 3 3 3 3 3 3 6 6 6 5 5 6 8 7 8 8 8 10 11 10 11 12 15 15
9 9 9 8 7 7 7 6 6 5 4 4 3 2 2 1 1 2 3 2 3 3 5 4 4 7 9 10 10 11 12 15 12 11 7 10 12 15 13 12 14 15 18
9 9 7 7 7 6 6 5 4 4 3 3 2 1 1 1 2 3 3 3 3 4 6 4 6 10 11 9 11 13 14 16 14 15 11 9 9 11 12 15 20 15 20
Wind_Direction
181 178 174 178 174 165 170 173 170 161 165 168 169 165 161 156 150 138 136 144 142 140 137 136 126 124 107 89 77 70 68 72 107 328 336 0 0 6 343 349 327 308 303
184 173 178 171 166 169 171 171 168 170 167 166 157 155 151 145 143 145 151 154 149 148 144 130 129 118 106 95 86 79 76 60 95 303 323 349 318 334 317 318 324 317 338
170 172 169 174 176 179 174 167 165 162 163 153 153 158 155 150 147 142 143 146 143 141 141 137 139 130 117 106 92 91 76 68 69 72 307 335 285 338 327 323 318 314 306
170 173 175 182 185 181 170 166 162 160 153 151 150 142 142 140 143 144 141 133 129 125 121 119 124 122 118 114 97 93 84 74 57 89 274 271 299 326 315 329 317 314 314
173 177 186 182 176 161 156 159 155 157 157 151 140 135 138 145 150 141 136 129 127 111 97 98 93 106 109 104 106 90 82 80 55 9 316 319 303 335 328 321 310 328 313
173 181 162 155 155 162 157 149 147 145 143 142 144 143 142 148 163 155 136 129 124 119 109 91 82 72 97 97 87 77 70 85 38 5 17 335 325 324 343 350 323 324 321
161 156 156 156 157 158 152 148 150 149 140 141 137 138 135 129 158 148 133 115 111 108 111 106 91 82 79 72 75 59 43 38 30 17 11 12 359 356 356 330 323 309 295
155 153 148 148 145 144 146 145 132 138 138 137 129 125 125 138 145 131 116 100 93 84 91 96 103 87 114 121 101 65 73 41 30 48 31 5 349 351 339 325 330 299 292
149 150 148 143 137 136 133 132 128 122 117 116 123 124 127 131 128 127 110 102 97 91 89 90 91 72 52 43 87 89 68 49 23 19 8 358 352 346 339 349 338 329 317
75 130 127 135 139 132 126 124 110 111 114 114 107 104 104 115 127 126 111 113 107 100 71 52 98 117 59 73 61 44 82 38 17 4 358 356 359 347 354 2 330 319 316
40 74 81 89 105 115 109 110 115 117 114 109 103 97 96 104 114 116 115 105 114 104 92 62 356 67 66 55 47 48 58 66 4 359 321 340 350 344 338 334 318 310 300
63 75 81 91 102 109 111 113 117 119 112 110 104 97 95 101 107 112 113 112 113 106 100 75 59 66 59 46 41 36 29 33 21 15 2 335 330 328 321 312 298 282 266
77 78 83 89 93 105 115 117 114 117 118 117 112 104 87 76 105 116 119 114 107 87 84 86 74 69 61 43 39 39 41 20 11 19 336 297 269 299 289 285 296 277 276
87 86 90 94 95 95 99 108 118 122 118 117 117 110 101 87 81 79 67 75 86 75 74 71 71 66 63 59 40 32 23 8 358 324 306 299 290 314 320 310 307 315 307
93 94 97 96 98 95 84 94 104 97 121 125 117 113 113 106 119 124 113 101 97 105 88 71 63 52 48 37 27 17 3 357 354 338 330 326 322 316 310 312 303 308 290
104 101 105 107 107 106 108 107 101 110 114 110 108 105 107 116 99 102 98 85 98 98 61 76 69 57 45 24 9 348 327 345 342 335 323 304 307 312 312 314 306 303 300
110 116 112 112 114 118 117 117 119 110 106 104 107 110 110 108 96 95 93 88 79 77 86 77 76 57 41 20 1 343 328 326 318 299 297 304 310 309 311 311 311 303 297
83 82 97 97 98 106 112 108 107 108 104 83 93 95 94 93 94 92 94 82 61 56 75 80 74 55 20 349 331 302 300 304 296 293 296 298 295 296 308 304 299 297 301
90 90 92 91 90 95 94 93 93 93 90 86 75 59 55 91 85 80 75 85 96 83 70 71 57 27 301 284 275 282 269 288 294 303 292 292 289 292 296 289 290 296 296
92 100 101 100 100 97 98 101 99 95 91 87 82 83 62 67 75 74 71 75 79 74 67 34 318 259 249 253 273 275 294 290 290 277 283 283 286 279 283 289 294 296 296
98 93 98 92 91 93 96 98 102 104 104 104 106 128 116 102 99 90 84 78 80 71 334 264 265 258 252 261 276 282 268 283 283 279 281 285 286 285 282 282 286 287 289
97 93 89 90 91 89 91 95 98 101 100 99 74 90 98 83 89 90 86 62 359 242 232 234 260 254 253 255 268 269 275 284 280 269 272 282 279 282 285 286 290 290 293
97 97 91 87 89 95 91 90 95 97 96 90 91 95 89 89 98 93 31 288 283 285 276 252 273 290 265 255 238 234 257 270 268 266 276 284 288 287 287 287 291 295 296
94 95 98 97 96 95 97 96 96 97 101 98 96 99 102 107 92 333 289 299 309 297 278 271 254 264 283 280 261 247 247 257 259 260 246 266 278 286 284 284 287 289 289
89 94 96 99 101 103 105 97 96 96 104 108 111 104 85 69 350 293 294 294 283 285 285 280 270 273 277 280 277 274 267 273 265 259 253 250 260 274 274 278 284 288 284
89 90 92 96 96 98 103 107 106 110 112 108 99 99 162 259 271 282 287 297 293 288 293 280 279 277 278 278 273 274 277 278 273 256 236 239 255 269 273 279 287 293 291